Haleyville, AL

3:56 PM CDT on June 20, 2019 (GMT -0500)
Haleyville

Weather History for K1M4 - April, 2019

Change the Weather History Date:

Tuesday, April 23, 2019

  Actual Average (KJFX) Record (KJFX)
Temperature  
Mean Temperature 66 °F -  
Max Temperature 79 °F 74 °F 91 °F (1965)
Min Temperature 52 °F 49 °F 31 °F (1982)
Growing Degree Days 16 (Base 50)    
Moisture  
Dew Point 53 °F    
Average Humidity 70    
Maximum Humidity 97    
Minimum Humidity 40    
Precipitation  
Precipitation 0.00 in - - ()
Sea Level Pressure  
Sea Level Pressure 30.16 in    
Wind  
Wind Speed 3 mph (WSW)    
Max Wind Speed 10 mph    
Max Gust Speed 18 mph    
Visibility 10 miles    
Events      
Averages and records for this station are not official NWS values.
T = Trace of Precipitation, MM = Missing Value Source: NWS Daily Summary

Daily Weather History Graph

Daily Weather History Graph

Search for Another Location

Airport or City:

Astronomy

Apr. 23, 2019 Rise Set
Actual Time 6:09 AM CDT 7:28 PM CDT
Civil Twilight 5:43 AM CDT 7:54 PM CDT
Nautical Twilight 5:12 AM CDT 8:25 PM CDT
Astronomical Twilight 4:39 AM CDT 8:58 PM CDT
Moon No Moon Rise 9:23 AM CDT (4/23)
Length of Visible Light 14h 10m
Length of Day
13h 18m
Waning Gibbous, 80% of the Moon is Illuminated
Apr 23
Waning Gibbous
Apr 26
Last Quarter
May 4
New
May 11
First Quarter
May 18
Full

Hourly Weather History & Observations

Time (CDT) Temp. Dew Point Humidity Pressure Visibility Wind Dir Wind Speed Gust Speed Precip Events Conditions
12:56 AM 55.0 °F 52.0 °F 89% 30.19 in 10.0 mi Calm Calm - N/A   Clear
1:56 AM 54.0 °F 52.0 °F 93% 30.18 in 10.0 mi Calm Calm - N/A   Clear
2:56 AM 52.0 °F 51.1 °F 97% 30.18 in 10.0 mi NNW 3.5 mph - N/A   Clear
3:56 AM 53.1 °F 51.1 °F 93% 30.17 in 10.0 mi Calm Calm - N/A   Clear
4:56 AM 52.0 °F 51.1 °F 97% 30.17 in 10.0 mi Calm Calm - N/A   Clear
5:56 AM 52.0 °F 50.0 °F 93% 30.18 in 10.0 mi SSW 3.5 mph - N/A   Clear
6:56 AM 55.0 °F 51.1 °F 86% 30.21 in 10.0 mi Calm Calm - N/A   Clear
7:56 AM 61.0 °F 53.1 °F 75% 30.23 in 10.0 mi SW 3.5 mph - N/A   Clear
8:56 AM 66.0 °F 53.1 °F 63% 30.22 in 10.0 mi West 5.8 mph - N/A   Clear
9:56 AM 71.1 °F 54.0 °F 55% 30.22 in 10.0 mi Variable 6.9 mph - N/A   Clear
10:56 AM 72.0 °F 54.0 °F 53% 30.22 in 10.0 mi Variable 3.5 mph - N/A   Clear
11:56 AM 73.9 °F 54.0 °F 50% 30.20 in 10.0 mi Variable 4.6 mph - N/A   Clear
12:56 PM 78.1 °F 52.0 °F 40% 30.18 in 10.0 mi SW 10.4 mph - N/A   Clear
1:56 PM 77.0 °F 53.1 °F 43% 30.17 in 10.0 mi WSW 10.4 mph 18.4 mph N/A   Clear
2:56 PM 79.0 °F 54.0 °F 42% 30.14 in 10.0 mi SW 9.2 mph - N/A   Clear
3:56 PM 77.0 °F 55.0 °F 47% 30.13 in 10.0 mi SW 8.1 mph - N/A   Partly Cloudy
4:56 PM 75.0 °F 52.0 °F 44% 30.14 in 10.0 mi WSW 10.4 mph - N/A   Clear
5:56 PM 73.0 °F 53.1 °F 49% 30.14 in 10.0 mi WSW 4.6 mph - N/A   Clear
6:56 PM 69.1 °F 55.9 °F 63% 30.13 in 10.0 mi Calm Calm - N/A   Clear
7:56 PM 66.0 °F 55.9 °F 70% 30.12 in 10.0 mi Calm Calm - N/A   Clear
8:56 PM 64.0 °F 55.9 °F 75% 30.12 in 10.0 mi Calm Calm - N/A   Clear
9:56 PM 61.0 °F 55.9 °F 83% 30.11 in 10.0 mi Calm Calm - N/A   Clear
10:56 PM 59.0 °F 55.9 °F 90% 30.10 in 10.0 mi Calm Calm - N/A   Clear
11:56 PM 55.9 °F 54.0 °F 93% 30.10 in 10.0 mi Calm Calm - N/A   Clear